,,,PA_Meas_PMT16A,,PR_Meas_QMR101_102,,RH_Meas_QMH101,,SR_Meas_QMS101,,TA_Meas_QMH101,,GenWind,,GenWind,
date,time,status,PA,status,PR,status,RH,status,SR,status,TA,status,DirAvg,status,SpdAvg,
2009-06-18, 00:00:04,VALID,1001.72,VALID,0,VALID,81.9726,VALID,0,VALID,23.9354,VALID,134,VALID,0.684375,
2009-06-18, 00:01:04,VALID,1001.68,VALID,0,VALID,81.5759,VALID,0,VALID,23.9744,VALID,129,VALID,1.16992,
2009-06-18, 00:02:04,VALID,1001.64,VALID,0,VALID,81.5683,VALID,0,VALID,24.0329,VALID,118,VALID,0.835938,
2009-06-18, 00:03:04,VALID,1001.62,VALID,0,VALID,81.5988,VALID,0,VALID,24.0329,VALID,120,VALID,0.622266,
2009-06-18, 00:04:04,VALID,1001.61,VALID,0,VALID,81.6217,VALID,0,VALID,24.0134,VALID,119,VALID,0.454688,
2009-06-18, 00:05:04,VALID,1001.59,VALID,0,VALID,81.6217,VALID,0,VALID,23.9744,VALID,135,VALID,0.343359,
2009-06-18, 00:06:04,VALID,1001.59,VALID,0,VALID,82.0032,VALID,0,VALID,23.9372,VALID,135,VALID,0.218359,
2009-06-18, 00:07:04,VALID,1001.56,VALID,0,VALID,82.2092,VALID,0,VALID,23.9177,VALID,128,VALID,0.801562,
2009-06-18, 00:08:04,VALID,1001.6,VALID,0,VALID,82.2702,VALID,0,VALID,23.8963,VALID,130,VALID,1.03477,
2009-06-18, 00:09:04,VALID,1001.62,VALID,0,VALID,82.2092,VALID,0,VALID,23.9372,VALID,120,VALID,1.04023,
2009-06-18, 00:10:04,VALID,1001.65,VALID,0,VALID,81.7743,VALID,0,VALID,23.9744,VALID,129,VALID,1.45938,
2009-06-18, 00:11:04,VALID,1001.66,VALID,0,VALID,81.6598,VALID,0,VALID,24.0738,VALID,130,VALID,1.21133,
2009-06-18, 00:12:04,VALID,1001.65,VALID,0,VALID,81.698,VALID,0,VALID,24.072,VALID,123,VALID,0.925781,
2009-06-18, 00:13:04,VALID,1001.63,VALID,0,VALID,81.5912,VALID,0,VALID,24.1128,VALID,129,VALID,1.61445,
2009-06-18, 00:14:04,VALID,1001.6,VALID,0,VALID,81.4004,VALID,0,VALID,24.1519,VALID,123,VALID,1.225,
2009-06-18, 00:15:04,VALID,1001.57,VALID,0,VALID,81.3775,VALID,0,VALID,24.1909,VALID,132,VALID,1.09961,
2009-06-18, 00:16:04,VALID,1001.54,VALID,0,VALID,81.5835,VALID,0,VALID,24.1696,VALID,134,VALID,0.934766,
2009-06-18, 00:17:04,VALID,1001.5,VALID,0,VALID,81.5759,VALID,0,VALID,24.1714,VALID,124,VALID,1.14219,
2009-06-18, 00:18:04,VALID,1001.52,VALID,0,VALID,81.698,VALID,0,VALID,24.1519,VALID,110,VALID,1.02109,
2009-06-18, 00:19:04,VALID,1001.52,VALID,0,VALID,81.7895,VALID,0,VALID,24.1519,VALID,124,VALID,0.769141,
2009-06-18, 00:20:04,VALID,1001.5,VALID,0,VALID,81.8963,VALID,0,VALID,24.111,VALID,135,VALID,0.908594,
2009-06-18, 00:21:04,VALID,1001.49,VALID,0,VALID,82.2244,VALID,0,VALID,24.1128,VALID,127,VALID,0.719922,
2009-06-18, 00:22:04,VALID,1001.45,VALID,0,VALID,82.2473,VALID,0,VALID,24.0525,VALID,128,VALID,0.740234,
2009-06-18, 00:23:04,VALID,1001.46,VALID,0,VALID,82.4609,VALID,0,VALID,24.0329,VALID,128,VALID,0.582031,
2009-06-18, 00:24:04,VALID,1001.44,VALID,0,VALID,82.7127,VALID,0,VALID,23.9939,VALID,128,VALID,0.545313,
2009-06-18, 00:25:04,VALID,1001.41,VALID,0,VALID,82.7738,VALID,0,VALID,23.9549,VALID,128,VALID,0.726953,
2009-06-18, 00:26:04,VALID,1001.42,VALID,0,VALID,82.8806,VALID,0,VALID,23.9762,VALID,133,VALID,0.636328,
2009-06-18, 00:27:04,VALID,1001.39,VALID,0,VALID,82.5983,VALID,0,VALID,23.9567,VALID,134,VALID,0.809766,
2009-06-18, 00:28:04,VALID,1001.39,VALID,0,VALID,82.6288,VALID,0,VALID,23.9549,VALID,142,VALID,0.581641,
2009-06-18, 00:29:04,VALID,1001.35,VALID,0,VALID,82.6364,VALID,0,VALID,23.9744,VALID,142,VALID,0.390234,
2009-06-18, 00:30:04,VALID,1001.37,VALID,0,VALID,82.6974,VALID,0,VALID,23.9744,VALID,142,VALID,0.349219,
2009-06-18, 00:31:04,VALID,1001.32,VALID,0,VALID,82.5143,VALID,0,VALID,23.9549,VALID,142,VALID,0.467187,
2009-06-18, 00:32:04,VALID,1001.26,VALID,0,VALID,82.3541,VALID,0,VALID,23.9354,VALID,142,VALID,0.521875,
2009-06-18, 00:33:04,VALID,1001.28,VALID,0,VALID,82.316,VALID,0,VALID,23.9762,VALID,142,VALID,0.401563,
2009-06-18, 00:34:04,VALID,1001.26,VALID,0,VALID,82.2397,VALID,0,VALID,23.9549,VALID,142,VALID,0,
2009-06-18, 00:35:04,VALID,1001.24,VALID,0,VALID,82.6059,VALID,0,VALID,23.9372,VALID,142,VALID,0,
2009-06-18, 00:36:04,VALID,1001.24,VALID,0,VALID,82.85,VALID,0,VALID,23.8573,VALID,142,VALID,0.351953,
2009-06-18, 00:37:04,VALID,1001.27,VALID,0,VALID,83.1247,VALID,0,VALID,23.7988,VALID,142,VALID,0.161719,
2009-06-18, 00:38:04,VALID,1001.27,VALID,0,VALID,83.4604,VALID,0,VALID,23.7012,VALID,142,VALID,0.188672,
2009-06-18, 00:39:04,VALID,1001.28,VALID,0,VALID,83.9487,VALID,0,VALID,23.6232,VALID,137,VALID,0.263281,
2009-06-18, 00:40:04,VALID,1001.32,VALID,0,VALID,84.0326,VALID,0,VALID,23.5664,VALID,136,VALID,0.176953,
2009-06-18, 00:41:04,VALID,1001.3,VALID,0,VALID,84.4523,VALID,0,VALID,23.5061,VALID,136,VALID,0,
2009-06-18, 00:42:04,VALID,1001.32,VALID,0,VALID,84.8109,VALID,0.112286,VALID,23.4475,VALID,136,VALID,0,
2009-06-18, 00:43:04,VALID,1001.31,VALID,0,VALID,85.0169,VALID,0,VALID,23.3695,VALID,136,VALID,0.120703,
2009-06-18, 00:44:04,VALID,1001.27,VALID,0,VALID,85.2915,VALID,0,VALID,23.3305,VALID,136,VALID,0,
2009-06-18, 00:45:04,VALID,1001.28,VALID,0,VALID,85.6654,VALID,0,VALID,23.311,VALID,136,VALID,0,
2009-06-18, 00:46:04,VALID,1001.27,VALID,0,VALID,85.6272,VALID,0,VALID,23.2524,VALID,136,VALID,0,
2009-06-18, 00:47:04,VALID,1001.28,VALID,0,VALID,85.9324,VALID,0,VALID,23.2347,VALID,136,VALID,0.0605469,
2009-06-18, 00:48:04,VALID,1001.26,VALID,0,VALID,86.0545,VALID,0,VALID,23.1726,VALID,136,VALID,0.121094,
2009-06-18, 00:49:04,VALID,1001.28,VALID,0,VALID,86.1613,VALID,0,VALID,23.1939,VALID,136,VALID,0.174219,
2009-06-18, 00:50:04,VALID,1001.25,VALID,0,VALID,86.1613,VALID,0,VALID,23.2152,VALID,136,VALID,0.145313,
2009-06-18, 00:51:04,VALID,1001.26,VALID,0,VALID,86.2757,VALID,0,VALID,23.2152,VALID,136,VALID,0.315234,
2009-06-18, 00:52:04,VALID,1001.25,VALID,0,VALID,86.2071,VALID,0,VALID,23.2329,VALID,136,VALID,0.210547,
2009-06-18, 00:53:04,VALID,1001.26,VALID,0,VALID,86.3826,VALID,0,VALID,23.2737,VALID,136,VALID,0.374609,
2009-06-18, 00:54:04,VALID,1001.25,VALID,0,VALID,86.2681,VALID,0,VALID,23.3127,VALID,136,VALID,0.194141,
2009-06-18, 00:55:04,VALID,1001.23,VALID,0,VALID,86.0621,VALID,0,VALID,23.311,VALID,136,VALID,0,
2009-06-18, 00:56:04,VALID,1001.21,VALID,0,VALID,86.0697,VALID,0,VALID,23.2719,VALID,136,VALID,0,
2009-06-18, 00:57:04,VALID,1001.22,VALID,0,VALID,86.2986,VALID,0,VALID,23.2524,VALID,136,VALID,0,
2009-06-18, 00:58:04,VALID,1001.17,VALID,0,VALID,86.4589,VALID,0,VALID,23.2737,VALID,136,VALID,0,
2009-06-18, 00:59:04,VALID,1001.2,VALID,0,VALID,86.7564,VALID,0,VALID,23.2134,VALID,136,VALID,0.400391,
2009-06-18, 01:00:04,VALID,1001.2,VALID,0,VALID,87.2447,VALID,0,VALID,23.1744,VALID,136,VALID,0.483594,
2009-06-18, 01:01:04,VALID,1001.18,VALID,0,VALID,87.6949,VALID,0,VALID,23.1957,VALID,113,VALID,0.592969,
2009-06-18, 01:02:04,VALID,1001.18,VALID,0,VALID,87.9237,VALID,0,VALID,23.2152,VALID,71,VALID,0.874219,
2009-06-18, 01:03:04,VALID,1001.18,VALID,0,VALID,87.8551,VALID,0,VALID,23.1957,VALID,67,VALID,0.866016,
2009-06-18, 01:04:04,VALID,1001.16,VALID,0,VALID,88.1221,VALID,0,VALID,23.1371,VALID,67,VALID,0.840625,
2009-06-18, 01:05:04,VALID,1001.13,VALID,0,VALID,88.5875,VALID,0,VALID,23.1176,VALID,67,VALID,0.816016,
2009-06-18, 01:06:04,VALID,1001.1,VALID,0,VALID,88.5417,VALID,0,VALID,23.1176,VALID,67,VALID,0.796875,
2009-06-18, 01:07:04,VALID,1001.09,VALID,0,VALID,88.5951,VALID,0,VALID,23.0964,VALID,67,VALID,0.933984,
2009-06-18, 01:08:04,VALID,1001.03,VALID,0,VALID,88.1297,VALID,0,VALID,23.1371,VALID,67,VALID,1.02539,
2009-06-18, 01:09:04,VALID,1000.99,VALID,0,VALID,88.2518,VALID,0,VALID,23.1159,VALID,67,VALID,0.889063,
2009-06-18, 01:10:04,VALID,1000.97,VALID,0,VALID,88.5799,VALID,0,VALID,23.0769,VALID,67,VALID,0.926953,
2009-06-18, 01:11:04,VALID,1000.92,VALID,0,VALID,88.3434,VALID,0,VALID,23.1176,VALID,67,VALID,0.836719,
2009-06-18, 01:12:04,VALID,1000.86,VALID,0,VALID,87.878,VALID,0,VALID,23.1371,VALID,62,VALID,0.926953,
2009-06-18, 01:13:04,VALID,1000.85,VALID,0,VALID,87.9009,VALID,0,VALID,23.1762,VALID,58,VALID,1.14609,
2009-06-18, 01:14:04,VALID,1000.81,VALID,0,VALID,88.1221,VALID,0,VALID,23.1566,VALID,55,VALID,1.10117,
2009-06-18, 01:15:04,VALID,1000.85,VALID,0,VALID,88.3281,VALID,0,VALID,23.0964,VALID,55,VALID,1.10469,
2009-06-18, 01:16:04,VALID,1000.81,VALID,0,VALID,88.0458,VALID,0,VALID,23.1176,VALID,55,VALID,1.21445,
2009-06-18, 01:17:04,VALID,1000.83,VALID,0,VALID,88,VALID,0,VALID,23.0573,VALID,55,VALID,1.26523,
2009-06-18, 01:18:04,VALID,1000.79,VALID,0,VALID,88.1145,VALID,0,VALID,22.9598,VALID,54,VALID,1.26875,
2009-06-18, 01:19:04,VALID,1000.79,VALID,0,VALID,88.412,VALID,0,VALID,22.8623,VALID,52,VALID,1.34219,
2009-06-18, 01:20:04,VALID,1000.81,VALID,0,VALID,88.9843,VALID,0,VALID,22.7452,VALID,49,VALID,1.31172,
2009-06-18, 01:21:04,VALID,1000.77,VALID,0,VALID,89.3047,VALID,0,VALID,22.6672,VALID,49,VALID,1.1082,
2009-06-18, 01:22:04,VALID,1000.79,VALID,0,VALID,89.8388,VALID,0,VALID,22.6299,VALID,49,VALID,1.22148,
2009-06-18, 01:23:04,VALID,1000.8,VALID,0,VALID,89.9609,VALID,0,VALID,22.5696,VALID,49,VALID,1.22227,
2009-06-18, 01:24:04,VALID,1000.79,VALID,0,VALID,90.1134,VALID,0,VALID,22.5519,VALID,55,VALID,1.20586,
2009-06-18, 01:25:04,VALID,1000.79,VALID,0,VALID,90.3347,VALID,0,VALID,22.5128,VALID,58,VALID,1.03594,
2009-06-18, 01:26:04,VALID,1000.77,VALID,0,VALID,90.5026,VALID,0,VALID,22.4721,VALID,58,VALID,1.15391,
2009-06-18, 01:27:04,VALID,1000.79,VALID,0,VALID,90.6399,VALID,0,VALID,22.4916,VALID,58,VALID,1.03164,
2009-06-18, 01:28:04,VALID,1000.77,VALID,0,VALID,90.6933,VALID,0,VALID,22.4933,VALID,57,VALID,0.891406,
2009-06-18, 01:29:04,VALID,1000.75,VALID,0,VALID,90.6246,VALID,0,VALID,22.4526,VALID,57,VALID,0.630469,
2009-06-18, 01:30:04,VALID,1000.73,VALID,0,VALID,90.823,VALID,0,VALID,22.4348,VALID,57,VALID,0.519141,
2009-06-18, 01:31:04,VALID,1000.68,VALID,0,VALID,91.0595,VALID,0,VALID,22.3729,VALID,57,VALID,0.489062,
2009-06-18, 01:32:04,VALID,1000.67,VALID,0,VALID,91.2731,VALID,0,VALID,22.3746,VALID,57,VALID,0.502734,
2009-06-18, 01:33:04,VALID,1000.66,VALID,0,VALID,91.3494,VALID,0,VALID,22.3568,VALID,57,VALID,0.540234,
2009-06-18, 01:34:04,VALID,1000.65,VALID,0,VALID,91.502,VALID,0,VALID,22.3373,VALID,57,VALID,0.501172,
2009-06-18, 01:35:04,VALID,1000.68,VALID,0,VALID,91.708,VALID,0,VALID,22.3161,VALID,57,VALID,0.710547,
2009-06-18, 01:36:04,VALID,1000.65,VALID,0,VALID,91.8072,VALID,0,VALID,22.3373,VALID,57,VALID,0.831641,
2009-06-18, 01:37:04,VALID,1000.63,VALID,0,VALID,91.8225,VALID,0,VALID,22.3161,VALID,57,VALID,0.901953,
2009-06-18, 01:38:04,VALID,1000.63,VALID,0,VALID,91.6546,VALID,0,VALID,22.3356,VALID,57,VALID,0.7875,
2009-06-18, 01:39:04,VALID,1000.6,VALID,0,VALID,91.4791,VALID,0,VALID,22.3356,VALID,57,VALID,0.773047,
2009-06-18, 01:40:04,VALID,1000.61,VALID,0,VALID,91.2426,VALID,0,VALID,22.3161,VALID,52,VALID,0.759766,
2009-06-18, 01:41:04,VALID,1000.63,VALID,0,VALID,91.4028,VALID,0,VALID,22.3178,VALID,44,VALID,0.680469,
2009-06-18, 01:42:04,VALID,1000.59,VALID,0,VALID,91.2655,VALID,0,VALID,22.2771,VALID,44,VALID,0.686328,
2009-06-18, 01:43:04,VALID,1000.61,VALID,0,VALID,91.2731,VALID,0,VALID,22.2186,VALID,44,VALID,0.797656,
2009-06-18, 01:44:04,VALID,1000.6,VALID,0,VALID,91.4486,VALID,0,VALID,22.1795,VALID,44,VALID,0.789844,
2009-06-18, 01:45:04,VALID,1000.58,VALID,0,VALID,91.5326,VALID,0,VALID,22.16,VALID,44,VALID,0.75625,
2009-06-18, 01:46:04,VALID,1000.62,VALID,0,VALID,91.7004,VALID,0,VALID,22.121,VALID,44,VALID,0.664844,
2009-06-18, 01:47:04,VALID,1000.62,VALID,0,VALID,92.0514,VALID,0,VALID,22.1015,VALID,44,VALID,0.821484,
2009-06-18, 01:48:04,VALID,1000.65,VALID,0,VALID,92.1124,VALID,0,VALID,22.1015,VALID,44,VALID,0.736719,
2009-06-18, 01:49:04,VALID,1000.67,VALID,0,VALID,91.8606,VALID,0,VALID,22.082,VALID,44,VALID,0.68125,
2009-06-18, 01:50:04,VALID,1000.68,VALID,0,VALID,91.708,VALID,0,VALID,22.043,VALID,44,VALID,0.403125,
2009-06-18, 01:51:04,VALID,1000.68,VALID,0,VALID,91.8606,VALID,0,VALID,22.0023,VALID,44,VALID,0.648047,
2009-06-18, 01:52:04,VALID,1000.7,VALID,0,VALID,92.1963,VALID,0,VALID,22.004,VALID,44,VALID,0.708984,
2009-06-18, 01:53:04,VALID,1000.7,VALID,0,VALID,92.6846,VALID,0,VALID,22.043,VALID,44,VALID,0.660547,
2009-06-18, 01:54:04,VALID,1000.7,VALID,0,VALID,92.6846,VALID,0,VALID,22.0608,VALID,44,VALID,0.560547,
2009-06-18, 01:55:04,VALID,1000.69,VALID,0,VALID,92.3947,VALID,0,VALID,22.1405,VALID,44,VALID,0.517578,
2009-06-18, 01:56:04,VALID,1000.68,VALID,0,VALID,92.2192,VALID,0,VALID,22.16,VALID,44,VALID,0.50625,
2009-06-18, 01:57:04,VALID,1000.63,VALID,0,VALID,92.0743,VALID,0,VALID,22.1795,VALID,44,VALID,0.390625,
2009-06-18, 01:58:04,VALID,1000.62,VALID,0,VALID,91.9674,VALID,0,VALID,22.2007,VALID,44,VALID,0.496875,
2009-06-18, 01:59:04,VALID,1000.62,VALID,0,VALID,92.0666,VALID,0,VALID,22.2202,VALID,56,VALID,0.630469,
2009-06-18, 02:00:04,VALID,1000.61,VALID,0,VALID,91.9827,VALID,0,VALID,22.2186,VALID,60,VALID,0.565625,
2009-06-18, 02:01:04,VALID,1000.62,VALID,0,VALID,91.5631,VALID,0,VALID,22.1795,VALID,60,VALID,0.385938,
2009-06-18, 02:02:04,VALID,1000.56,VALID,0,VALID,91.4257,VALID,0,VALID,22.1812,VALID,60,VALID,0.385938,
2009-06-18, 02:03:04,VALID,1000.57,VALID,0,VALID,91.6012,VALID,0,VALID,22.1795,VALID,60,VALID,0.405469,
2009-06-18, 02:04:04,VALID,1000.56,VALID,0,VALID,91.6088,VALID,0,VALID,22.1795,VALID,60,VALID,0.276172,
2009-06-18, 02:05:04,VALID,1000.61,VALID,0,VALID,91.6546,VALID,0,VALID,22.16,VALID,60,VALID,0.430469,
2009-06-18, 02:06:04,VALID,1000.58,VALID,0,VALID,91.6623,VALID,0,VALID,22.1795,VALID,60,VALID,0.297656,
2009-06-18, 02:07:04,VALID,1000.62,VALID,0,VALID,91.1053,VALID,0,VALID,22.199,VALID,46,VALID,0.527734,
2009-06-18, 02:08:04,VALID,1000.62,VALID,0,VALID,90.9756,VALID,0,VALID,22.16,VALID,20,VALID,0.692969,
2009-06-18, 02:09:04,VALID,1000.61,VALID,0,VALID,91.235,VALID,0,VALID,22.1795,VALID,16,VALID,0.825,
2009-06-18, 02:10:04,VALID,1000.58,VALID,0,VALID,91.3876,VALID,0,VALID,22.2007,VALID,12,VALID,0.783594,
2009-06-18, 02:11:04,VALID,1000.59,VALID,0,VALID,91.4257,VALID,0,VALID,22.1795,VALID,12,VALID,0.727344,
2009-06-18, 02:12:04,VALID,1000.56,VALID,0,VALID,91.3342,VALID,0,VALID,22.2202,VALID,12,VALID,0.587109,
2009-06-18, 02:13:04,VALID,1000.57,VALID,0,VALID,91.3876,VALID,0,VALID,22.1795,VALID,12,VALID,0.435937,
2009-06-18, 02:14:04,VALID,1000.55,VALID,0,VALID,91.38,VALID,0,VALID,22.16,VALID,12,VALID,0.238672,
2009-06-18, 02:15:04,VALID,1000.59,VALID,0,VALID,91.4028,VALID,0,VALID,22.2007,VALID,12,VALID,0.166016,
2009-06-18, 02:16:04,VALID,1000.58,VALID,0,VALID,91.4944,VALID,0,VALID,22.1812,VALID,12,VALID,0.197266,
2009-06-18, 02:17:04,VALID,1000.57,VALID,0,VALID,91.4105,VALID,0,VALID,22.16,VALID,12,VALID,0.109375,
2009-06-18, 02:18:04,VALID,1000.6,VALID,0,VALID,91.3342,VALID,0,VALID,22.1405,VALID,12,VALID,0.145703,
2009-06-18, 02:19:04,VALID,1000.6,VALID,0,VALID,91.4639,VALID,0,VALID,22.1617,VALID,12,VALID,0.257422,
2009-06-18, 02:20:04,VALID,1000.61,VALID,0,VALID,91.441,VALID,0,VALID,22.16,VALID,12,VALID,0.287109,
2009-06-18, 02:21:04,VALID,1000.6,VALID,0,VALID,91.3571,VALID,0,VALID,22.1795,VALID,12,VALID,0.265234,
2009-06-18, 02:22:04,VALID,1000.63,VALID,0,VALID,91.4563,VALID,0,VALID,22.199,VALID,12,VALID,0.379297,
2009-06-18, 02:23:04,VALID,1000.61,VALID,0,VALID,91.3418,VALID,0,VALID,22.2381,VALID,12,VALID,0.3125,
2009-06-18, 02:24:04,VALID,1000.61,VALID,0,VALID,91.0137,VALID,0.112286,VALID,22.2771,VALID,21,VALID,0.209375,
2009-06-18, 02:25:04,VALID,1000.64,VALID,0,VALID,90.6475,VALID,0,VALID,22.3746,VALID,148,VALID,0.341797,
2009-06-18, 02:26:04,VALID,1000.65,VALID,0,VALID,90.2966,VALID,0,VALID,22.4331,VALID,148,VALID,0.376172,
2009-06-18, 02:27:04,VALID,1000.61,VALID,0,VALID,89.6099,VALID,0,VALID,22.5323,VALID,146,VALID,1.08867,
2009-06-18, 02:28:04,VALID,1000.61,VALID,0,VALID,88.8317,VALID,0,VALID,22.6477,VALID,140,VALID,1.4332,
2009-06-18, 02:29:04,VALID,1000.61,VALID,0,VALID,87.8932,VALID,0,VALID,22.8232,VALID,143,VALID,1.64063,
2009-06-18, 02:30:04,VALID,1000.6,VALID,0,VALID,87.0692,VALID,0.112286,VALID,22.9988,VALID,141,VALID,1.01055,
2009-06-18, 02:31:04,VALID,1000.62,VALID,0,VALID,86.4131,VALID,0,VALID,23.1354,VALID,144,VALID,0.886719,
2009-06-18, 02:32:04,VALID,1000.6,VALID,0,VALID,86.0469,VALID,0,VALID,23.1939,VALID,146,VALID,0.736328,
2009-06-18, 02:33:04,VALID,1000.6,VALID,0,VALID,85.6425,VALID,0,VALID,23.2524,VALID,146,VALID,0.441016,
2009-06-18, 02:34:04,VALID,1000.59,VALID,0,VALID,85.406,VALID,0,VALID,23.3127,VALID,146,VALID,0.428906,
2009-06-18, 02:35:04,VALID,1000.59,VALID,0,VALID,84.994,VALID,0,VALID,23.35,VALID,151,VALID,0.796875,
2009-06-18, 02:36:04,VALID,1000.59,VALID,0,VALID,84.5515,VALID,0,VALID,23.4085,VALID,158,VALID,0.770703,
2009-06-18, 02:37:04,VALID,1000.56,VALID,0,VALID,84.3226,VALID,0.112286,VALID,23.4671,VALID,158,VALID,0.351563,
2009-06-18, 02:38:04,VALID,1000.53,VALID,0,VALID,84.1776,VALID,0,VALID,23.4866,VALID,158,VALID,0.180078,
2009-06-18, 02:39:04,VALID,1000.54,VALID,0,VALID,84.1852,VALID,0,VALID,23.4671,VALID,158,VALID,0.156641,
2009-06-18, 02:40:04,VALID,1000.49,VALID,0,VALID,84.3607,VALID,0,VALID,23.4688,VALID,158,VALID,0.270312,
2009-06-18, 02:41:04,VALID,1000.48,VALID,0,VALID,84.3989,VALID,0,VALID,23.4475,VALID,138,VALID,0.124609,
2009-06-18, 02:42:04,VALID,1000.46,VALID,0,VALID,84.4141,VALID,0,VALID,23.428,VALID,138,VALID,0,
2009-06-18, 02:43:04,VALID,1000.45,VALID,0,VALID,84.4446,VALID,0,VALID,23.389,VALID,138,VALID,0,
2009-06-18, 02:44:04,VALID,1000.43,VALID,0,VALID,84.7574,VALID,0,VALID,23.3305,VALID,139,VALID,0.232812,
2009-06-18, 02:45:04,VALID,1000.45,VALID,0,VALID,84.8948,VALID,0,VALID,23.3305,VALID,139,VALID,0.139453,
2009-06-18, 02:46:04,VALID,1000.45,VALID,0,VALID,85.0321,VALID,0,VALID,23.2915,VALID,139,VALID,0.148438,
2009-06-18, 02:47:04,VALID,1000.46,VALID,0,VALID,85.2457,VALID,0,VALID,23.2329,VALID,139,VALID,0.251563,
2009-06-18, 02:48:04,VALID,1000.46,VALID,0,VALID,85.5509,VALID,0,VALID,23.1957,VALID,139,VALID,0.338672,
2009-06-18, 02:49:04,VALID,1000.44,VALID,0,VALID,85.8409,VALID,0,VALID,23.1371,VALID,139,VALID,0.1,
2009-06-18, 02:50:04,VALID,1000.46,VALID,0,VALID,86.1537,VALID,0,VALID,23.0786,VALID,139,VALID,0.0371094,
2009-06-18, 02:51:04,VALID,1000.44,VALID,0,VALID,86.4054,VALID,0,VALID,23.0396,VALID,139,VALID,0,
2009-06-18, 02:52:04,VALID,1000.44,VALID,0,VALID,86.497,VALID,0,VALID,22.9793,VALID,139,VALID,0.29375,
2009-06-18, 02:53:04,VALID,1000.41,VALID,0,VALID,86.6191,VALID,0,VALID,22.9403,VALID,139,VALID,0.288672,
2009-06-18, 02:54:04,VALID,1000.41,VALID,0,VALID,86.497,VALID,0,VALID,22.942,VALID,139,VALID,0.273047,
2009-06-18, 02:55:04,VALID,1000.41,VALID,0,VALID,86.7411,VALID,0,VALID,22.9013,VALID,139,VALID,0.188672,
2009-06-18, 02:56:04,VALID,1000.42,VALID,0,VALID,86.7183,VALID,0,VALID,22.8835,VALID,139,VALID,0.142578,
2009-06-18, 02:57:04,VALID,1000.4,VALID,0,VALID,86.642,VALID,0,VALID,22.8818,VALID,139,VALID,0.195313,
2009-06-18, 02:58:04,VALID,1000.41,VALID,0,VALID,86.9243,VALID,0,VALID,22.8623,VALID,124,VALID,0.453906,
2009-06-18, 02:59:04,VALID,1000.41,VALID,0,VALID,87.0387,VALID,0,VALID,22.8232,VALID,20,VALID,0.694922,
2009-06-18, 03:00:04,VALID,1000.39,VALID,0,VALID,87.7788,VALID,0,VALID,22.7274,VALID,20,VALID,0.670703,
2009-06-18, 03:01:04,VALID,1000.36,VALID,0,VALID,88.5646,VALID,0,VALID,22.6087,VALID,20,VALID,0.762109,
2009-06-18, 03:02:04,VALID,1000.34,VALID,0,VALID,89.6023,VALID,0,VALID,22.5111,VALID,20,VALID,0.664453,
2009-06-18, 03:03:04,VALID,1000.32,VALID,0,VALID,89.4954,VALID,0.112286,VALID,22.4721,VALID,20,VALID,0.592188,
2009-06-18, 03:04:04,VALID,1000.33,VALID,0,VALID,89.8464,VALID,0,VALID,22.4331,VALID,51,VALID,0.756641,
2009-06-18, 03:05:04,VALID,1000.34,VALID,0,VALID,89.236,VALID,0,VALID,22.4136,VALID,57,VALID,0.916406,
2009-06-18, 03:06:04,VALID,1000.35,VALID,0,VALID,89.1216,VALID,0,VALID,22.3746,VALID,57,VALID,0.944531,
2009-06-18, 03:07:04,VALID,1000.37,VALID,0,VALID,89.5336,VALID,0,VALID,22.3356,VALID,55,VALID,0.987891,
2009-06-18, 03:08:04,VALID,1000.41,VALID,0,VALID,89.8083,VALID,0,VALID,22.3356,VALID,52,VALID,0.796094,
2009-06-18, 03:09:04,VALID,1000.38,VALID,0,VALID,89.6633,VALID,0,VALID,22.3356,VALID,50,VALID,0.578516,
2009-06-18, 03:10:04,VALID,1000.36,VALID,0,VALID,89.5794,VALID,0,VALID,22.2771,VALID,48,VALID,0.424609,
2009-06-18, 03:11:04,VALID,1000.4,VALID,0,VALID,89.7091,VALID,0,VALID,22.2576,VALID,47,VALID,0.534375,
2009-06-18, 03:12:04,VALID,1000.37,VALID,0,VALID,89.9914,VALID,0,VALID,22.2397,VALID,34,VALID,0.675391,
2009-06-18, 03:13:04,VALID,1000.32,VALID,0,VALID,90.0295,VALID,0,VALID,22.199,VALID,27,VALID,0.912891,
2009-06-18, 03:14:04,VALID,1000.32,VALID,0,VALID,89.9074,VALID,0,VALID,22.1812,VALID,27,VALID,0.555859,
2009-06-18, 03:15:04,VALID,1000.3,VALID,0,VALID,90.0295,VALID,0,VALID,22.121,VALID,27,VALID,0.544922,
2009-06-18, 03:16:04,VALID,1000.25,VALID,0,VALID,90.1134,VALID,0,VALID,22.082,VALID,27,VALID,0.240234,
2009-06-18, 03:17:04,VALID,1000.26,VALID,0,VALID,90.1974,VALID,0,VALID,22.043,VALID,27,VALID,0.270312,
2009-06-18, 03:18:04,VALID,1000.26,VALID,0,VALID,90.266,VALID,0,VALID,22.004,VALID,27,VALID,0.248047,
2009-06-18, 03:19:04,VALID,1000.24,VALID,0,VALID,90.4263,VALID,0,VALID,21.9862,VALID,27,VALID,0.514453,
2009-06-18, 03:20:04,VALID,1000.25,VALID,0,VALID,90.6017,VALID,0,VALID,21.926,VALID,27,VALID,0.38125,
2009-06-18, 03:21:04,VALID,1000.27,VALID,0,VALID,90.823,VALID,0,VALID,21.9065,VALID,27,VALID,0.629297,
2009-06-18, 03:22:04,VALID,1000.27,VALID,0,VALID,91.2045,VALID,0,VALID,21.9277,VALID,27,VALID,0.754687,
2009-06-18, 03:23:04,VALID,1000.28,VALID,0,VALID,91.2503,VALID,0,VALID,21.887,VALID,27,VALID,0.888672,
2009-06-18, 03:24:04,VALID,1000.26,VALID,0,VALID,91.6851,VALID,0,VALID,21.9065,VALID,27,VALID,0.886328,
2009-06-18, 03:25:04,VALID,1000.23,VALID,0,VALID,91.7309,VALID,0,VALID,21.9065,VALID,27,VALID,0.916016,
2009-06-18, 03:26:04,VALID,1000.22,VALID,0,VALID,92.0209,VALID,0,VALID,21.926,VALID,27,VALID,0.808984,
2009-06-18, 03:27:04,VALID,1000.22,VALID,0,VALID,92.0743,VALID,0,VALID,21.926,VALID,27,VALID,0.705859,
2009-06-18, 03:28:04,VALID,1000.2,VALID,0,VALID,92.2574,VALID,0,VALID,21.9472,VALID,27,VALID,0.597656,
2009-06-18, 03:29:04,VALID,1000.18,VALID,0,VALID,92.2803,VALID,0,VALID,21.9455,VALID,27,VALID,0.464844,
2009-06-18, 03:30:04,VALID,1000.21,VALID,0,VALID,92.1734,VALID,0,VALID,21.9455,VALID,27,VALID,0.249609,
2009-06-18, 03:31:04,VALID,1000.26,VALID,0,VALID,92.1811,VALID,0,VALID,21.9667,VALID,27,VALID,0.2,
2009-06-18, 03:32:04,VALID,1000.28,VALID,0,VALID,92.3413,VALID,0,VALID,21.9455,VALID,27,VALID,0.274609,
2009-06-18, 03:33:04,VALID,1000.25,VALID,0,VALID,92.4252,VALID,0,VALID,21.9845,VALID,27,VALID,0.260938,
2009-06-18, 03:34:04,VALID,1000.29,VALID,0,VALID,92.4023,VALID,0,VALID,22.0235,VALID,27,VALID,0.2375,
2009-06-18, 03:35:04,VALID,1000.34,VALID,0,VALID,92.2879,VALID,0,VALID,22.0235,VALID,27,VALID,0.189063,
2009-06-18, 03:36:04,VALID,1000.33,VALID,0,VALID,92.2268,VALID,0,VALID,22.0235,VALID,27,VALID,0.252344,
2009-06-18, 03:37:04,VALID,1000.31,VALID,0,VALID,92.204,VALID,0,VALID,22.0235,VALID,27,VALID,0.242578,
2009-06-18, 03:38:04,VALID,1000.33,VALID,0,VALID,92.1963,VALID,0,VALID,22.0235,VALID,27,VALID,0.348828,
2009-06-18, 03:39:04,VALID,1000.34,VALID,0,VALID,92.2497,VALID,0,VALID,22.0447,VALID,27,VALID,0.374609,
2009-06-18, 03:40:04,VALID,1000.35,VALID,0,VALID,92.1658,VALID,0,VALID,22.043,VALID,27,VALID,0.475781,
2009-06-18, 03:41:04,VALID,1000.34,VALID,0,VALID,92.1277,VALID,0,VALID,22.043,VALID,27,VALID,0.478516,
2009-06-18, 03:42:04,VALID,1000.34,VALID,0,VALID,92.0285,VALID,0,VALID,22.043,VALID,27,VALID,0.523047,
2009-06-18, 03:43:04,VALID,1000.36,VALID,0,VALID,92.0819,VALID,0,VALID,22.0447,VALID,27,VALID,0.587891,
2009-06-18, 03:44:04,VALID,1000.31,VALID,0,VALID,92.3566,VALID,0,VALID,22.043,VALID,27,VALID,0.591797,
2009-06-18, 03:45:04,VALID,1000.34,VALID,0,VALID,92.2268,VALID,0,VALID,22.0235,VALID,27,VALID,0.575391,
2009-06-18, 03:46:04,VALID,1000.33,VALID,0,VALID,92.326,VALID,0,VALID,22.0447,VALID,27,VALID,0.499609,